STARLINK-2401, 47818

Orbit data source: Space-Track

STARLINK-2401, 47818 is a payload satellite owned by SpaceX/Seattle (US) in LEO that was launched on Thu, 11 Mar 2021 UTC via an FALCON 9 launch vehicle from the Air Force Eastern Test Range (AFETR). Payload-class satellites include a variety of spacecraft equipped with specific instruments for various scientific and technological missions. These include communications satellites like Starlink; space stations such as the ISS; scientific satellites like the Hubble; Earth observation satellites from companies like Planet Labs, Umbra, and HawkEye 360; GPS; miniature CubeSats for education and research; and military/defense satellites.

Loading next visibility...
Identifier
47818, 2021-018AH
Orbit
LEO
Country
Flag of USUS
Related business
Manufacturer
SpaceX/Seattle
Mission
Operational Commercial Communications
Bus & Motor
STARLINK, Unknown motor
Mass
260 kg wet, ~248 kg dry
Launch date (UTC)
2021-03-11 (5 years ago)
Launch vehicle
FALCON 9
Launch site
Air Force Eastern Test Range (AFETR)
Object type
Payload
Rocket body
Debris
Shape & HBR
Box + 1 Pan, 10.1 m
Radar Cross Section
13.562 m², Large (>1 m²)

Expand to show TLE details & history
Last TLE update: 12 hours ago

TLE from 12 hours ago
0 STARLINK-2401
1 47818U 21018AH  26035.31132382 -.00001292  00000-0 -67900-4 0  9991
2 47818  53.0561  46.9250 0001039 106.4073 253.7030 15.06389806271488
Epoch: 2026-02-04T07:28Z
TLE epoch observation values (Epoch: 2026-02-04T07:28:18.378Z)
Latitude
-0.00002°
Longitude
160.36868°
Altitude
548.324 km
Speed
7.589 km/s
True Right ascension
03h 07m 41s
True Declination
0° 00' 00"
Sunlit
Object was in daylight at epoch
Visualization orbit readout
Latitude
Unknown
Longitude
Unknown
Altitude
Unknown
Speed
Unknown
Apparent Right ascension
Unknown
Apparent Declination
Unknown
Sunlit
N/A
Visualization observer readout
Local Sidereal Time
21:39:45
Azimuth
Unknown
Elevation
Unknown
Doppler factor
Unknown
Orbital elements
Apogee altitude
548.233 km
Perigee altitude
546.794 km
Semi-major axis
6,925.65 km
Eccentricity
0.0001
Inclination
53.0561°
RAAN
46.925°
Arg. of periapsis
106.4073°
True anomaly
253.69157°
Mean anomaly
253.703°
Eccentric anomaly
253.69729°
Mean motion
3.76576 °/min
Orbital period
95.6 mins
BSTAR
-0.0000679
Loading maneuver chart data...
Computing Atmospheric mass density...
Loading historical data...
Loading historical data...
Loading historical data...
Loading historical data...
Loading historical data...
Loading historical data...
Loading historical data...

Documentation

Showing up to 5 results
|